Weather History for Crosby, ND

Change the Weather History Date:

Wednesday, October 31, 2012

  Actual Average (KISN) Record (KISN)
Temperature  
Mean Temperature 37 °F 36 °F  
Max Temperature 46 °F 48 °F 75 °F (1990)
Min Temperature 28 °F 24 °F -2 °F (2002)
Degree Days  
Heating Degree Days 28 29  
Month to date heating degree days 683  
Since 1 July heating degree days 1027  
Cooling Degree Days 0 0  
Month to date cooling degree days 1  
Year to date cooling degree days 456  
Moisture  
Dew Point 33 °F    
Average Humidity 90    
Maximum Humidity 100    
Minimum Humidity 75    
Precipitation  
Precipitation 0.00 in 0.03 in 0.79 in (1974)
Month to date precipitation 0.92  
Year to date precipitation 13.10  
Sea Level Pressure  
Sea Level Pressure 30.06 in    
Wind  
Wind Speed 12 mph (NNW)    
Max Wind Speed 23 mph    
Max Gust Speed 29 mph    
Visibility 10 miles    
Events Rain    
T = Trace of Precipitation, MM = Missing Value Source: NWS Daily Summary

Daily Weather History Graph

Daily Weather History Graph

Search for Another Location

Airport:

Trip Planner

Search our weather history database for the weather conditions in past years. The results will help you decide how hot, cold, wet, or windy it might be!

Date:

Astronomy

Oct. 31, 2012 Rise Set
Actual Time 8:39 AM CDT 6:33 PM CDT
Civil Twilight 8:06 AM CDT 7:06 PM CDT
Nautical Twilight 7:29 AM CDT 7:43 PM CDT
Astronomical Twilight 6:52 AM CDT 8:20 PM CDT
Moon 7:35 PM CDT (10/31) 10:32 AM CDT (10/31)
Length of Visible Light 10h 59m
Length of Day
9h 53m
Full, 97% of the Moon is Illuminated
Oct 31
Full
Nov 6
Last Quarter
Nov 13
New
Nov 20
First Quarter
Nov 28
Full

Hourly Weather History & Observations

Time (CDT) Temp. Windchill Dew Point Humidity Pressure Visibility Wind Dir Wind Speed Gust Speed Precip Events Conditions
12:15 AM 39.2 °F 33.0 °F 37.4 °F 93% 29.91 in 10.0 mi South 9.2 mph - N/A   Clear
12:35 AM 39.2 °F 32.5 °F 37.4 °F 93% 29.91 in 10.0 mi SSW 10.4 mph - N/A   Clear
12:55 AM 39.2 °F 32.5 °F 39.2 °F 100% 29.90 in 10.0 mi South 10.4 mph - N/A   Clear
1:15 AM 39.2 °F 32.0 °F 39.2 °F 100% 29.90 in 10.0 mi South 11.5 mph - N/A   Clear
1:35 AM 39.2 °F 32.5 °F 39.2 °F 100% 29.90 in 10.0 mi SSW 10.4 mph - N/A   Mostly Cloudy
1:55 AM 41.0 °F 33.9 °F 39.2 °F 93% 29.90 in 10.0 mi SSW 12.7 mph - N/A   Overcast
2:15 AM 41.0 °F 35.2 °F 39.2 °F 93% 29.90 in 10.0 mi SSW 9.2 mph - N/A   Overcast
2:35 AM 42.8 °F 36.2 °F 41.0 °F 93% 29.90 in 10.0 mi SSW 12.7 mph - N/A   Mostly Cloudy
2:55 AM 44.6 °F 38.4 °F 41.0 °F 87% 29.90 in 10.0 mi SSW 12.7 mph - N/A   Overcast
3:15 AM 44.6 °F 38.4 °F 41.0 °F 87% 29.91 in 10.0 mi SSW 12.7 mph - N/A   Overcast
3:35 AM 44.6 °F 39.2 °F 41.0 °F 87% 29.91 in 10.0 mi SSW 10.4 mph - N/A   Overcast
3:55 AM 46.4 °F 42.9 °F 41.0 °F 81% 29.94 in 10.0 mi West 6.9 mph 21.9 mph N/A   Overcast
4:15 AM 44.6 °F 40.7 °F 41.0 °F 87% 29.94 in 10.0 mi WNW 6.9 mph - N/A   Overcast
4:35 AM 44.6 °F 41.4 °F 41.0 °F 87% 29.94 in 10.0 mi WNW 5.8 mph - N/A   Overcast
4:55 AM 44.6 °F 40.7 °F 41.0 °F 87% 29.94 in 10.0 mi NW 6.9 mph - N/A   Overcast
5:15 AM 44.6 °F 40.7 °F 41.0 °F 87% 29.95 in 10.0 mi NNW 6.9 mph - N/A   Overcast
5:35 AM 42.8 °F 38.0 °F 39.2 °F 87% 29.95 in 10.0 mi NNW 8.1 mph - N/A   Overcast
5:55 AM 41.0 °F 33.1 °F 39.2 °F 93% 29.96 in 10.0 mi NNW 15.0 mph 23.0 mph N/A   Overcast
6:15 AM 39.2 °F 29.8 °F 39.2 °F 100% 29.97 in 9.0 mi NW 18.4 mph 25.3 mph N/A   Overcast
6:35 AM 37.4 °F 30.3 °F 37.4 °F 100% 29.98 in 10.0 mi NW 10.4 mph - N/A   Overcast
6:55 AM 35.6 °F 26.6 °F 35.6 °F 100% 29.99 in 10.0 mi NNW 13.8 mph - N/A   Overcast
7:15 AM 35.6 °F 27.1 °F 35.6 °F 100% 30.00 in 10.0 mi NNW 12.7 mph - N/A Rain Light Rain
7:35 AM 35.6 °F 25.9 °F 35.6 °F 100% 30.00 in 8.0 mi NNW 16.1 mph 21.9 mph N/A   Overcast
7:55 AM 35.6 °F 24.5 °F 35.6 °F 100% 30.01 in 7.0 mi NNW 20.7 mph 24.2 mph N/A   Overcast
8:15 AM 33.8 °F 21.6 °F 33.8 °F 100% 30.02 in 9.0 mi NW 23.0 mph 28.8 mph N/A   Overcast
8:35 AM 33.8 °F 22.8 °F 33.8 °F 100% 30.04 in 10.0 mi NNW 18.4 mph 25.3 mph N/A   Overcast
8:55 AM 33.8 °F 23.5 °F 33.8 °F 100% 30.04 in 10.0 mi NNW 16.1 mph 23.0 mph N/A   Overcast
9:15 AM 33.8 °F 22.5 °F 33.8 °F 100% 30.05 in 9.0 mi NNW 19.6 mph 24.2 mph N/A Rain Light Rain
9:35 AM 33.8 °F 23.2 °F 33.8 °F 100% 30.05 in 10.0 mi NNW 17.3 mph 26.5 mph N/A   Overcast
9:55 AM 33.8 °F 22.2 °F 33.8 °F 100% 30.06 in 10.0 mi NNW 20.7 mph 26.5 mph N/A   Overcast
10:15 AM 33.8 °F 23.2 °F 33.8 °F 100% 30.07 in 10.0 mi North 17.3 mph 20.7 mph N/A   Overcast
10:35 AM 33.8 °F 23.5 °F 33.8 °F 100% 30.08 in 10.0 mi North 16.1 mph 23.0 mph N/A   Overcast
10:55 AM 33.8 °F 23.9 °F 33.8 °F 100% 30.09 in 10.0 mi North 15.0 mph - N/A   Overcast
11:15 AM 33.8 °F 23.9 °F 32.0 °F 93% 30.10 in 10.0 mi North 15.0 mph 20.7 mph N/A   Overcast
11:35 AM 35.6 °F 26.6 °F 33.8 °F 93% 30.11 in 10.0 mi North 13.8 mph - N/A   Overcast
11:55 AM 35.6 °F 25.9 °F 33.8 °F 93% 30.11 in 10.0 mi North 16.1 mph 19.6 mph N/A   Overcast
12:15 PM 35.6 °F 26.6 °F 33.8 °F 93% 30.11 in 10.0 mi North 13.8 mph 20.7 mph N/A   Overcast
12:35 PM 35.6 °F 26.6 °F 33.8 °F 93% 30.12 in 10.0 mi NNW 13.8 mph 24.2 mph N/A   Overcast
12:55 PM 35.6 °F 26.2 °F 32.0 °F 87% 30.13 in 10.0 mi North 15.0 mph 20.7 mph N/A   Overcast
1:15 PM 35.6 °F 26.6 °F 32.0 °F 87% 30.13 in 10.0 mi North 13.8 mph 18.4 mph N/A   Overcast
1:55 PM 35.6 °F 27.1 °F 32.0 °F 87% 30.12 in 10.0 mi North 12.7 mph - N/A   Overcast
2:15 PM 37.4 °F 29.3 °F 32.0 °F 81% 30.12 in 10.0 mi North 12.7 mph - N/A   Overcast
2:35 PM 37.4 °F 28.9 °F 32.0 °F 81% 30.12 in 10.0 mi North 13.8 mph - N/A   Overcast
2:55 PM 37.4 °F 28.9 °F 32.0 °F 81% 30.13 in 10.0 mi North 13.8 mph - N/A   Overcast
3:15 PM 37.4 °F 29.3 °F 32.0 °F 81% 30.12 in 10.0 mi North 12.7 mph - N/A   Mostly Cloudy
3:35 PM 37.4 °F 28.9 °F 32.0 °F 81% 30.13 in 10.0 mi North 13.8 mph - N/A   Mostly Cloudy
3:55 PM 37.4 °F 28.9 °F 30.2 °F 75% 30.13 in 10.0 mi North 13.8 mph - N/A   Mostly Cloudy
4:15 PM 37.4 °F 29.3 °F 30.2 °F 75% 30.14 in 10.0 mi North 12.7 mph - N/A   Overcast
4:35 PM 35.6 °F 26.2 °F 30.2 °F 81% 30.15 in 10.0 mi NNW 15.0 mph - N/A   Overcast
4:55 PM 35.6 °F 27.1 °F 30.2 °F 81% 30.15 in 10.0 mi NNW 12.7 mph - N/A   Overcast
5:15 PM 35.6 °F 27.1 °F 28.4 °F 75% 30.15 in 10.0 mi NNW 12.7 mph - N/A   Overcast
5:35 PM 33.8 °F 25.8 °F 28.4 °F 81% 30.15 in 10.0 mi North 10.4 mph - N/A   Overcast
5:55 PM 32.0 °F 23.0 °F 28.4 °F 87% 30.16 in 10.0 mi North 11.5 mph - N/A   Overcast
6:15 PM 32.0 °F 23.0 °F 28.4 °F 87% 30.16 in 10.0 mi North 11.5 mph - N/A   Overcast
7:15 PM 32.0 °F 23.6 °F 26.6 °F 80% 30.16 in 10.0 mi North 10.4 mph - N/A   Overcast
7:35 PM 30.2 °F 21.3 °F 26.6 °F 86% 30.17 in 10.0 mi North 10.4 mph - N/A   Overcast
7:55 PM 30.2 °F 21.9 °F 26.6 °F 86% 30.16 in 10.0 mi North 9.2 mph - N/A   Overcast
8:15 PM 30.2 °F 21.3 °F 26.6 °F 86% 30.16 in 10.0 mi North 10.4 mph - N/A   Overcast
8:35 PM 30.2 °F 21.9 °F 26.6 °F 86% 30.17 in 10.0 mi North 9.2 mph - N/A   Overcast
8:55 PM 30.2 °F 22.6 °F 26.6 °F 86% 30.18 in 10.0 mi North 8.1 mph - N/A   Overcast
9:15 PM 30.2 °F 21.9 °F 26.6 °F 86% 30.17 in 10.0 mi North 9.2 mph - N/A   Overcast
9:35 PM 28.4 °F 20.4 °F 26.6 °F 93% 30.17 in 10.0 mi North 8.1 mph - N/A   Overcast
9:55 PM 30.2 °F 22.6 °F 26.6 °F 86% 30.17 in 10.0 mi NNE 8.1 mph - N/A   Overcast
10:15 PM 28.4 °F 19.7 °F 26.6 °F 93% 30.15 in 10.0 mi NNE 9.2 mph - N/A   Overcast
10:35 PM 28.4 °F 21.2 °F 26.6 °F 93% 30.17 in 10.0 mi North 6.9 mph - N/A   Overcast
10:55 PM 28.4 °F 21.2 °F 26.6 °F 93% 30.16 in 10.0 mi NNE 6.9 mph - N/A   Overcast
11:15 PM 28.4 °F 21.2 °F 24.8 °F 86% 30.17 in 10.0 mi NNE 6.9 mph - N/A   Overcast
11:35 PM 28.4 °F 21.2 °F 24.8 °F 86% 30.16 in 10.0 mi NE 6.9 mph - N/A   Overcast
11:55 PM 28.4 °F 20.4 °F 24.8 °F 86% 30.17 in 10.0 mi NE 8.1 mph - N/A   Overcast